When you browse on this site, cookies collect data to enhance your experience and personalize the content and advertising you see.
Visit our Privacy Policy to learn more. By continuing to use the site, you agree to this use of cookies and data.
  • In Portugal
  • List of Countries
  • For 7 days
  • Water Temperature
  • Satellite Maps
  • Weather Map
  • Weather Widgets
  • user-avatar
    Login

    Hourly Weather Igls

    Today, 21 January, Monday

    Time Temperature Precipitation Wind Pressure Humidity
    00:00 -6°C° 0 mm 1 mps 681 mmHg 83%
    01:00 -6°C° 0 mm 1 mps 682 mmHg 83%
    02:00 -7°C° 0 mm 1 mps 682 mmHg 83%
    03:00 -7°C° 0 mm 1 mps 682 mmHg 83%
    04:00 -7°C° 0 mm 1 mps 681 mmHg 83%
    05:00 -7°C° 0 mm 1 mps 682 mmHg 84%
    06:00 -7°C° 0 mm 1 mps 682 mmHg 84%
    07:00 -7°C° 0 mm 1 mps 682 mmHg 84%
    08:00 -6°C° 0 mm 1 mps 682 mmHg 84%
    09:00 -3°C° 0 mm 1 mps 683 mmHg 85%
    10:00 -2°C° 0 mm 1 mps 683 mmHg 85%
    11:00 -1°C° 0 mm 1 mps 683 mmHg 85%
    12:00 0°C° 0 mm 1 mps 683 mmHg 85%
    13:00 +1°C° 0 mm 1 mps 682 mmHg 85%
    14:00 +1°C° 0 mm 1 mps 682 mmHg 87%
    15:00 +1°C° 0 mm 1 mps 682 mmHg 89%
    16:00 0°C° 0 mm 1 mps 682 mmHg 92%
    17:00 -1°C° 0 mm 1 mps 682 mmHg 93%
    18:00 -3°C° 0 mm 1 mps 682 mmHg 94%
    19:00 -5°C° 0 mm 0 mps 681 mmHg 95%
    20:00 -6°C° 0 mm 1 mps 681 mmHg 94%
    21:00 -7°C° 0 mm 1 mps 681 mmHg 92%
    22:00 -7°C° 0 mm 1 mps 681 mmHg 91%
    23:00 -8°C° 0 mm 1 mps 681 mmHg 89%

    Tomorrow, 22 January, Tuesday

    Time Temperature Precipitation Wind Pressure Humidity
    00:00 -8°C° 0 mm 1 mps 681 mmHg 88%
    01:00 -9°C° 0 mm 1 mps 681 mmHg 87%
    02:00 -9°C° 0 mm 1 mps 680 mmHg 86%
    03:00 -9°C° 0 mm 1 mps 680 mmHg 85%
    04:00 -10°C° 0 mm 2 mps 679 mmHg 84%
    05:00 -9°C° 0 mm 1 mps 679 mmHg 82%
    06:00 -9°C° 0 mm 1 mps 678 mmHg 80%
    07:00 -9°C° 0 mm 1 mps 678 mmHg 78%
    08:00 -7°C° 0 mm 1 mps 678 mmHg 79%
    09:00 -4°C° 0 mm 1 mps 677 mmHg 79%
    10:00 -3°C° 0 mm 1 mps 677 mmHg 80%
    11:00 -1°C° 0 mm 1 mps 677 mmHg 77%
    12:00 0°C° 0 mm 1 mps 676 mmHg 74%
    13:00 +1°C° 0 mm 0 mps 675 mmHg 72%
    14:00 0°C° 0 mm 0 mps 674 mmHg 75%
    15:00 +1°C° 0 mm 1 mps 673 mmHg 78%
    16:00 0°C° 0 mm 1 mps 673 mmHg 82%
    17:00 -2°C° 0 mm 1 mps 672 mmHg 79%
    18:00 -6°C° 0 mm 2 mps 672 mmHg 76%
    19:00 -8°C° 0 mm 2 mps 671 mmHg 74%
    20:00 -8°C° 0 mm 2 mps 671 mmHg 71%
    21:00 -9°C° 0 mm 2 mps 671 mmHg 68%
    22:00 -9°C° 0 mm 2 mps 670 mmHg 66%
    23:00 -9°C° 0 mm 2 mps 670 mmHg 65%

    Day after tomorrow, 23 January, Wednesday

    Time Temperature Precipitation Wind Pressure Humidity
    00:00 -9°C° 0 mm 2 mps 670 mmHg 65%
    01:00 -10°C° 0 mm 2 mps 669 mmHg 65%
    02:00 -10°C° 0 mm 2 mps 669 mmHg 65%
    03:00 -10°C° 0 mm 2 mps 669 mmHg 66%
    04:00 -10°C° 0 mm 2 mps 668 mmHg 66%
    05:00 -10°C° 0 mm 2 mps 668 mmHg 66%
    06:00 -10°C° 0 mm 2 mps 668 mmHg 66%
    07:00 -10°C° 0 mm 2 mps 668 mmHg 66%
    08:00 -9°C° 0 mm 2 mps 668 mmHg 69%
    09:00 -6°C° 0 mm 1 mps 669 mmHg 71%
    10:00 -3°C° 0 mm 1 mps 669 mmHg 74%
    11:00 -2°C° 0 mm 1 mps 669 mmHg 72%
    12:00 -1°C° 0 mm 1 mps 669 mmHg 69%
    13:00 +1°C° 0 mm 1 mps 669 mmHg 66%
    14:00 0°C° 0 mm 1 mps 669 mmHg 73%
    15:00 -1°C° 0 mm 1 mps 669 mmHg 79%
    16:00 -2°C° 0 mm 1 mps 669 mmHg 85%
    17:00 -3°C° 0 mm 1 mps 670 mmHg 86%
    18:00 -6°C° 0 mm 1 mps 670 mmHg 87%
    19:00 -8°C° 0 mm 1 mps 670 mmHg 89%
    20:00 -8°C° 0 mm 1 mps 671 mmHg 87%
    21:00 -8°C° 0 mm 1 mps 671 mmHg 85%
    22:00 -9°C° 0 mm 1 mps 671 mmHg 83%
    23:00 -9°C° 0 mm 1 mps 672 mmHg 83%

    24 January, Thursday

    Time Temperature Precipitation Wind Pressure Humidity
    00:00 -9°C° 0 mm 1 mps 672 mmHg 82%
    01:00 -9°C° 0 mm 1 mps 672 mmHg 81%
    02:00 -9°C° 0 mm 1 mps 673 mmHg 82%
    03:00 -9°C° 0 mm 1 mps 673 mmHg 83%
    04:00 -8°C° 0 mm 1 mps 673 mmHg 83%
    05:00 -8°C° 0 mm 1 mps 674 mmHg 85%
    06:00 -9°C° 0 mm 1 mps 674 mmHg 86%
    07:00 -9°C° 0 mm 1 mps 675 mmHg 87%
    08:00 -7°C° 0 mm 1 mps 675 mmHg 88%
    09:00 -6°C° 0 mm 1 mps 676 mmHg 88%
    10:00 -3°C° 0 mm 1 mps 677 mmHg 89%
    11:00 -2°C° 0 mm 1 mps 677 mmHg 88%
    12:00 -1°C° 0 mm 1 mps 677 mmHg 88%
    13:00 -2°C° 0 mm 2 mps 677 mmHg 88%
    14:00 -3°C° 0 mm 2 mps 677 mmHg 90%
    15:00 -3°C° 0 mm 2 mps 677 mmHg 91%
    16:00 -4°C° 0 mm 2 mps 678 mmHg 92%
    17:00 -3°C° 0.1 mm 1 mps 678 mmHg 93%
    18:00 -6°C° 0.1 mm 1 mps 678 mmHg 94%
    19:00 -7°C° 0.1 mm 1 mps 679 mmHg 94%
    20:00 -7°C° 0 mm 1 mps 679 mmHg 94%
    21:00 -8°C° 0 mm 1 mps 679 mmHg 93%
    22:00 -8°C° 0 mm 1 mps 680 mmHg 92%
    23:00 -8°C° 0 mm 1 mps 680 mmHg 92%

    25 January, Friday

    Time Temperature Precipitation Wind Pressure Humidity
    00:00 -8°C° 0 mm 1 mps 680 mmHg 92%
    01:00 -9°C° 0 mm 1 mps 680 mmHg 92%
    02:00 -9°C° 0 mm 1 mps 680 mmHg 92%
    03:00 -9°C° 0 mm 1 mps 680 mmHg 91%
    04:00 -9°C° 0 mm 1 mps 680 mmHg 91%
    05:00 -9°C° 0 mm 1 mps 681 mmHg 91%
    06:00 -9°C° 0 mm 1 mps 681 mmHg 90%
    07:00 -9°C° 0 mm 1 mps 681 mmHg 90%
    08:00 -7°C° 0 mm 1 mps 682 mmHg 89%
    09:00 -6°C° 0 mm 1 mps 682 mmHg 89%
    10:00 -3°C° 0 mm 1 mps 683 mmHg 88%
    11:00 -2°C° 0 mm 1 mps 682 mmHg 88%
    12:00 -1°C° 0 mm 1 mps 682 mmHg 88%
    13:00 0°C° 0 mm 1 mps 682 mmHg 88%
    14:00 0°C° 0 mm 1 mps 682 mmHg 88%
    15:00 0°C° 0 mm 1 mps 682 mmHg 89%
    16:00 -1°C° 0 mm 1 mps 681 mmHg 89%
    17:00 -2°C° 0 mm 1 mps 682 mmHg 89%
    18:00 -4°C° 0 mm 1 mps 682 mmHg 89%
    19:00 -8°C° 0 mm 2 mps 682 mmHg 88%
    20:00 -8°C° 0 mm 2 mps 682 mmHg 84%
    21:00 -8°C° 0 mm 2 mps 682 mmHg 80%
    22:00 -8°C° 0 mm 2 mps 682 mmHg 77%
    23:00 -8°C° 0 mm 2 mps 682 mmHg 74%

    26 January, Saturday

    Time Temperature Precipitation Wind Pressure Humidity
    00:00 -8°C° 0 mm 2 mps 682 mmHg 71%
    01:00 -8°C° 0 mm 2 mps 682 mmHg 68%
    02:00 -7°C° 0 mm 2 mps 682 mmHg 68%
    03:00 -6°C° 0 mm 2 mps 681 mmHg 68%
    04:00 -5°C° 0 mm 2 mps 681 mmHg 68%
    05:00 -5°C° 0 mm 2 mps 681 mmHg 70%
    06:00 -4°C° 0 mm 2 mps 681 mmHg 73%
    07:00 -2°C° 0 mm 1 mps 681 mmHg 75%
    08:00 -1°C° 0 mm 1 mps 681 mmHg 79%
    09:00 +1°C° 0 mm 1 mps 681 mmHg 82%
    10:00 +2°C° 0 mm 1 mps 681 mmHg 85%
    11:00 +3°C° 0 mm 1 mps 680 mmHg 88%
    12:00 +3°C° 0 mm 0 mps 680 mmHg 91%
    13:00 +4°C° 0 mm 0 mps 679 mmHg 94%
    14:00 +4°C° 0 mm 0 mps 679 mmHg 93%
    15:00 +4°C° 0 mm 0 mps 678 mmHg 92%
    16:00 +3°C° 0 mm 0 mps 678 mmHg 91%
    17:00 +3°C° 0 mm 1 mps 677 mmHg 90%
    18:00 +2°C° 0 mm 1 mps 677 mmHg 89%
    19:00 -1°C° 0 mm 2 mps 676 mmHg 87%
    20:00 -2°C° 0 mm 2 mps 676 mmHg 86%
    21:00 -2°C° 0 mm 2 mps 675 mmHg 84%
    22:00 -3°C° 0 mm 2 mps 675 mmHg 83%
    23:00 -3°C° 0 mm 2 mps 674 mmHg 82%
    Show more